| time (UTC) | temp C | wind direction | speed KPH | gust KPH | rain 1hr cm | rain 24hr cm | rain mn cm | humidity % | barometer mb |
| 20260508213027 | 21 | 313 | 6.4 | 24.1 | 0.00 | 0.00 | 0.00 | 26 | 1010.6 |
| 20260508211527 | 20 | 25 | 8.0 | 20.9 | 0.00 | 0.00 | 0.00 | 29 | 1010.8 |
| 20260508210023 | 20 | 24 | 8.0 | 19.3 | 0.00 | 0.00 | 0.00 | 28 | 1010.9 |
| 20260508204523 | 20 | 360 | 6.4 | 20.9 | 0.00 | 0.00 | 0.00 | 27 | 1011.1 |
| 20260508203021 | 20 | 347 | 11.3 | 22.5 | 0.00 | 0.00 | 0.00 | 29 | 1011.3 |
| 20260508201526 | 19 | 17 | 8.0 | 19.3 | 0.00 | 0.00 | 0.00 | 31 | 1011.4 |
| 20260508200023 | 19 | 292 | 16.1 | 22.5 | 0.00 | 0.00 | 0.00 | 29 | 1011.5 |
| 20260508194520 | 19 | 338 | 11.3 | 24.1 | 0.00 | 0.00 | 0.00 | 29 | 1011.6 |
| 20260508193020 | 19 | 355 | 8.0 | 19.3 | 0.00 | 0.00 | 0.00 | 29 | 1011.7 |
| 20260508191524 | 19 | 348 | 6.4 | 16.1 | 0.00 | 0.00 | 0.00 | 32 | 1011.9 |
| 20260508190028 | 18 | 331 | 9.7 | 22.5 | 0.00 | 0.00 | 0.00 | 31 | 1012.1 |
| 20260508184518 | 18 | 336 | 4.8 | 19.3 | 0.00 | 0.00 | 0.00 | 31 | 1012.3 |
| 20260508183017 | 18 | 311 | 9.7 | 19.3 | 0.00 | 0.00 | 0.00 | 32 | 1012.2 |
| 20260508181528 | 18 | 331 | 9.7 | 20.9 | 0.00 | 0.00 | 0.00 | 36 | 1012.3 |
| 20260508180018 | 18 | 347 | 4.8 | 17.7 | 0.00 | 0.00 | 0.00 | 37 | 1012.4 |
| 20260508174517 | 18 | 335 | 8.0 | 17.7 | 0.00 | 0.00 | 0.00 | 37 | 1012.5 |
| 20260508173021 | 18 | 304 | 11.3 | 17.7 | 0.00 | 0.00 | 0.00 | 34 | 1012.4 |
| 20260508171523 | 18 | 32 | 3.2 | 12.9 | 0.00 | 0.00 | 0.00 | 32 | 1012.4 |
| 20260508170013 | 18 | 16 | 0.0 | 14.5 | 0.00 | 0.00 | 0.00 | 32 | 1012.2 |
| 20260508164513 | 18 | 292 | 4.8 | 14.5 | 0.00 | 0.00 | 0.00 | 32 | 1012.1 |
| 20260508163017 | 18 | 22 | 0.0 | 16.1 | 0.00 | 0.00 | 0.00 | 31 | 1012.1 |
| 20260508161514 | 17 | 304 | 6.4 | 14.5 | 0.00 | 0.00 | 0.00 | 31 | 1012.0 |
| 20260508160013 | 18 | 325 | 3.2 | 9.7 | 0.00 | 0.00 | 0.00 | 30 | 1011.9 |
| 20260508154509 | 17 | 236 | 1.6 | 4.8 | 0.00 | 0.00 | 0.00 | 37 | 1011.9 |
| 20260508153007 | 17 | 174 | 0.0 | 3.2 | 0.00 | 0.00 | 0.00 | 38 | 1011.8 |
| 20260508151505 | 16 | 138 | 0.0 | 4.8 | 0.00 | 0.00 | 0.00 | 42 | 1011.7 |
| 20260508150100 | 16 | 138 | 0.0 | 1.6 | 0.00 | 0.00 | 0.00 | 41 | 1011.8 |
| 20260508143102 | 13 | 138 | 3.2 | 8.0 | 0.00 | 0.00 | 0.00 | 48 | 1011.8 |
| 20260508141614 | 11 | 110 | 3.2 | 6.4 | 0.00 | 0.00 | 0.00 | 53 | 1011.6 |
| 20260508140052 | 10 | 79 | 3.2 | 6.4 | 0.00 | 0.00 | 0.00 | 53 | 1011.5 |
| 20260508134559 | 11 | 140 | 0.0 | 6.4 | 0.00 | 0.00 | 0.00 | 53 | 1011.5 |
| 20260508133046 | 11 | 84 | 1.6 | 8.0 | 0.00 | 0.00 | 0.00 | 50 | 1011.1 |
| 20260508131547 | 11 | 150 | 3.2 | 6.4 | 0.00 | 0.00 | 0.00 | 48 | 1011.2 |
| 20260508130045 | 11 | 122 | 3.2 | 12.9 | 0.00 | 0.00 | 0.00 | 45 | 1011.0 |
| 20260508124550 | 11 | 88 | 0.0 | 14.5 | 0.00 | 0.00 | 0.00 | 45 | 1010.7 |
| 20260508123048 | 11 | 42 | 1.6 | 14.5 | 0.00 | 0.00 | 0.00 | 46 | 1010.7 |
| 20260508121541 | 11 | 94 | 8.0 | 11.3 | 0.00 | 0.00 | 0.00 | 45 | 1010.6 |
| 20260508120039 | 11 | 103 | 8.0 | 11.3 | 0.00 | 0.00 | 0.00 | 46 | 1010.6 |
| 20260508114538 | 11 | 90 | 4.8 | 8.0 | 0.00 | 0.00 | 0.00 | 47 | 1010.7 |
| 20260508113047 | 12 | 84 | 1.6 | 9.7 | 0.00 | 0.00 | 0.00 | 46 | 1010.5 |
| 20260508111537 | 11 | 146 | 1.6 | 6.4 | 0.00 | 0.00 | 0.00 | 46 | 1010.5 |
| 20260508110036 | 12 | 88 | 3.2 | 8.0 | 0.00 | 0.00 | 0.00 | 46 | 1010.4 |
| 20260508104536 | 12 | 74 | 3.2 | 11.3 | 0.00 | 0.00 | 0.00 | 43 | 1010.3 |
| 20260508103038 | 12 | 140 | 4.8 | 8.0 | 0.00 | 0.00 | 0.00 | 47 | 1010.4 |
| 20260508101532 | 13 | 71 | 1.6 | 6.4 | 0.00 | 0.00 | 0.00 | 44 | 1010.3 |
| 20260508100027 | 13 | 68 | 0.0 | 12.9 | 0.00 | 0.00 | 0.00 | 44 | 1010.3 |
| 20260508094528 | 13 | 106 | 3.2 | 6.4 | 0.00 | 0.00 | 0.00 | 44 | 1010.2 |
| 20260508093027 | 13 | 117 | 6.4 | 12.9 | 0.00 | 0.00 | 0.00 | 43 | 1010.1 |
| 20260508091535 | 13 | 94 | 4.8 | 12.9 | 0.00 | 0.00 | 0.00 | 45 | 1010.1 |
| 20260508090035 | 12 | 70 | 3.2 | 6.4 | 0.00 | 0.00 | 0.00 | 47 | 1010.1 |
| 20260508084519 | 13 | 45 | 0.0 | 3.2 | 0.00 | 0.00 | 0.00 | 43 | 1010.4 |
| 20260508083017 | 13 | 45 | 1.6 | 4.8 | 0.00 | 0.00 | 0.00 | 42 | 1010.3 |
| 20260508081518 | 14 | 109 | 3.2 | 11.3 | 0.00 | 0.00 | 0.00 | 41 | 1010.3 |
| 20260508080027 | 14 | 80 | 3.2 | 12.9 | 0.00 | 0.00 | 0.00 | 41 | 1010.3 |
| 20260508074526 | 15 | 115 | 3.2 | 6.4 | 0.00 | 0.00 | 0.00 | 40 | 1010.4 |
| 20260508073016 | 15 | 67 | 4.8 | 14.5 | 0.00 | 0.00 | 0.00 | 40 | 1010.3 |
| 20260508071523 | 15 | 87 | 11.3 | 16.1 | 0.00 | 0.00 | 0.00 | 41 | 1010.3 |
| 20260508070013 | 14 | 86 | 9.7 | 14.5 | 0.00 | 0.00 | 0.00 | 42 | 1010.3 |
| 20260508064515 | 13 | 63 | 1.6 | 12.9 | 0.00 | 0.00 | 0.00 | 43 | 1010.5 |
| 20260508063010 | 13 | 82 | 6.4 | 14.5 | 0.00 | 0.00 | 0.00 | 44 | 1010.5 |
| 20260508061510 | 13 | 101 | 8.0 | 12.9 | 0.00 | 0.00 | 0.00 | 44 | 1010.4 |
| 20260508060008 | 13 | 94 | 6.4 | 11.3 | 0.00 | 0.00 | 0.00 | 44 | 1010.3 |
| 20260508054509 | 14 | 95 | 6.4 | 11.3 | 0.00 | 0.00 | 0.00 | 43 | 1010.1 |
| 20260508053006 | 14 | 101 | 4.8 | 9.7 | 0.00 | 0.00 | 0.00 | 43 | 1010.1 |
| 20260508051505 | 15 | 163 | 3.2 | 4.8 | 0.00 | 0.00 | 0.00 | 42 | 1010.2 |
| 20260508050005 | 15 | 86 | 9.7 | 14.5 | 0.00 | 0.00 | 0.00 | 41 | 1010.1 |
| 20260508044504 | 15 | 92 | 4.8 | 12.9 | 0.00 | 0.00 | 0.00 | 41 | 1010.3 |
| 20260508043004 | 15 | 124 | 1.6 | 6.4 | 0.00 | 0.00 | 0.00 | 40 | 1010.4 |
| 20260508041502 | 15 | 114 | 1.6 | 4.8 | 0.00 | 0.00 | 0.00 | 40 | 1010.3 |
| 20260508040006 | 16 | 69 | 9.7 | 19.3 | 0.00 | 0.00 | 0.00 | 39 | 1010.1 |
| 20260508034502 | 15 | 91 | 9.7 | 16.1 | 0.00 | 0.00 | 0.00 | 40 | 1010.0 |
| 20260508033001 | 15 | 139 | 6.4 | 14.5 | 0.00 | 0.00 | 0.00 | 41 | 1010.0 |
| 20260508031503 | 15 | 105 | 4.8 | 9.7 | 0.00 | 0.00 | 0.00 | 42 | 1010.0 |
| 20260508030001 | 16 | 76 | 6.4 | 14.5 | 0.00 | 0.00 | 0.00 | 39 | 1009.9 |
| 20260508024601 | 16 | 92 | 9.7 | 12.9 | 0.00 | 0.00 | 0.00 | 39 | 1009.9 |
| 20260508023101 | 17 | 106 | 8.0 | 11.3 | 0.00 | 0.00 | 0.00 | 37 | 1009.8 |
| 20260508021524 | 20 | 84 | 3.2 | 6.4 | 0.00 | 0.00 | 0.00 | 33 | 1009.8 |
| 20260508020017 | 20 | 294 | 1.6 | 4.8 | 0.00 | 0.00 | 0.00 | 29 | 1009.8 |
| 20260508014516 | 20 | 311 | 3.2 | 8.0 | 0.00 | 0.00 | 0.00 | 29 | 1009.8 |
| 20260508013027 | 21 | 318 | 4.8 | 9.7 | 0.00 | 0.00 | 0.00 | 28 | 1009.9 |
| 20260508011559 | 22 | 111 | 4.8 | 11.3 | 0.00 | 0.00 | 0.00 | 27 | 1009.9 |
| 20260508010056 | 22 | 206 | 4.8 | 11.3 | 0.00 | 0.00 | 0.00 | 27 | 1010.1 |
| 20260508004609 | 20 | 125 | 0.0 | 11.3 | 0.00 | 0.00 | 0.00 | 29 | 1010.2 |
| 20260508003053 | 20 | 124 | 3.2 | 8.0 | 0.00 | 0.00 | 0.00 | 30 | 1010.3 |
| 20260508001552 | 20 | 334 | 0.0 | 8.0 | 0.00 | 0.00 | 0.00 | 30 | 1010.6 |
| 20260508000050 | 20 | 24 | 0.0 | 8.0 | 0.00 | 0.00 | 0.00 | 30 | 1010.8 |
| 20260507234550 | 20 | 37 | 1.6 | 9.7 | 0.00 | 0.00 | 0.00 | 30 | 1011.0 |
| 20260507233048 | 21 | 9 | 4.8 | 12.9 | 0.00 | 0.00 | 0.00 | 31 | 1011.2 |
| 20260507231552 | 20 | 308 | 6.4 | 17.7 | 0.00 | 0.00 | 0.00 | 30 | 1011.5 |
| 20260507230048 | 20 | 119 | 1.6 | 14.5 | 0.00 | 0.00 | 0.00 | 30 | 1011.6 |
| 20260507224543 | 21 | 348 | 8.0 | 17.7 | 0.00 | 0.00 | 0.00 | 29 | 1011.9 |
| 20260507223041 | 21 | 286 | 6.4 | 11.3 | 0.00 | 0.00 | 0.00 | 30 | 1012.1 |
| 20260507221542 | 21 | 16 | 6.4 | 14.5 | 0.00 | 0.00 | 0.00 | 30 | 1012.3 |
| 20260507220039 | 20 | 316 | 4.8 | 14.5 | 0.00 | 0.00 | 0.00 | 30 | 1012.6 |
| 20260507214557 | 20 | 19 | 4.8 | 14.5 | 0.00 | 0.00 | 0.00 | 31 | 1012.7 |